sat.trackr.live / text

‹ back to catalog

STARLINK-37272

NORAD 68726 · 2026-081AD

PAYLOAD ACTIVE UNKNOWN

§ Identity

Operator
Country
US
Launch date
2026-04-14
Launch site
AFETR
Launch vehicle
Mass (kg)
RCS (m²)

Purposes: comms

External: N2YO · Heavens-Above · Gunter

§ Orbital elements

Epoch: 2026-05-25T04:00:03.998880Z

Period
93.24 min
Inclination
53.1605°
Eccentricity
0.0001106
Mean motion
15.44335278 rev/d
Perigee alt
432.6 km
Apogee alt
434.1 km
Semi-major
6,811.5 km
B*
-4.8770e-2
RAAN
38.7741°
Arg perigee
124.9184°
Mean anomaly
209.3852°
Rev number
601

§ Raw data

STARLINK-372721 68726U 26081AD  26145.16671295 -.02032728  00000+0 -48770-1 0  99932 68726  53.1605  38.7741 0001106 124.9184 209.3852 15.44335278  6016

JSON: /api/v1/satellites/68726 · /tle

For live sub-satellite position, see the globe view (requires WebGL).

§ Visibility from observer

Set your observer location to see the next 7 days of passes ≥ 10°. The values pass through the URL so the page stays shareable.

No JS? Fill the form by hand. The geolocation button needs JavaScript.